Weather in Slavkino

Russia / Ulyanovsk Oblast     52°57′29″N   47°10′31″E
temp.,
°C
wind,
m/s
gust,
m/s
humid.,
%
clouds,
%
prec.,
mm/h
press.,
hPa
HPBL,
m
13 may, thu
thu1301:00+13e229122 0.0 102226
04:00+12ene35864 0.0 102173
07:00+14ese41484100 0.8 1021520
10:00+14ese5138497 1.8 1020419
13:00+23se92054100 0.0 10191801
16:00+23se7165998 0.0 10191749
19:00+21sse714562 0.2 1018782
22:00+16se515765 2.2 1019346
14 may, fri
fri1401:00+14se37825 0.1 1019127
04:00+13se11835 0.9 102011
07:00+16se257674 0.0 1020136
10:00+21sse3657100 0.0 1020421
13:00+24s564913 0.0 1020911
16:00+26s57450 0.0 10201535
19:00+23sse3760100 0.0 1019186
22:00+18sse3764100 0.0 1019112
15 may, sat
sat1501:00+17sse3126129 0.0 1019212
04:00+16s395773 0.0 1020152
07:00+17sse3125818 0.0 1020246
10:00+23s510405 0.0 1020470
13:00+26s69335 0.0 1019939
16:00+27s510325 0.0 10181602
19:00+24sse410485 0.0 1018277
22:00+19sse3125114 0.0 1018202
16 may, sun
sun1601:00+17sse310535 0.0 1017150
04:00+16s395816 0.0 1018137
07:00+18s3961100 0.0 1018176
10:00+24s594015 0.0 1017512
13:00+26ssw683670 0.0 10171216
16:00+27ssw583485 0.0 10171873
19:00+23sw2252100 0.0 101617
22:00+19ssw1153100 0.0 101611
17 may, mon
mon1701:00+18se1154100 0.0 101711
04:00+17se0157100 0.0 101711
07:00+19s225999 0.0 101752
10:00+26s3639100 0.0 1018464
13:00+28s4730100 0.0 10182070
16:00+28s4628100 0.0 10172847
19:00+25e1143100 0.0 101712
22:00+19se125196 0.0 101711